Simultaneous Nadir Overpasses (SNOs) Predictions

Prediction of SNOs between AQUA and METOP-B Satellite Orbit:

Table of predicted SNOs for the next 14.0 days since TLE Epoch: 12/23/2023
Index Date (AQUA) Time (AQUA) Lat,Lon (AQUA) SZA (AQUA ) Date (METOP-B) Time (METOP-B) Lat,Lon (METOP-B) SZA (METOP-B ) Distance(km) Time Diff (sec)
1 12/23/2023 03:59:00 75.18, 116.67 98.56 12/23/2023 03:59:30 75.17, 116.68 98.54 2.13 30
2 12/25/2023 19:21:53 -75.09, 66.24 81.59 12/25/2023 19:20:40 -75.03, 66.02 81.64 8.93 73
3 12/25/2023 20:11:18 75.14,-126.25 98.47 12/25/2023 20:11:18 75.14,-126.35 98.47 2.89 0
4 12/25/2023 21:00:44 -75.31, 40.96 81.37 12/25/2023 21:01:56 -75.31, 41.48 81.37 14.73 72
5 12/28/2023 12:23:35 75.13, -9.24 98.35 12/28/2023 12:23:05 75.15, -9.28 98.38 3.03 30
6 12/28/2023 13:12:59 -75.19, 158.25 81.59 12/28/2023 13:13:46 -75.18, 158.14 81.60 3.13 47
7 12/31/2023 04:35:51 75.14, 107.71 98.20 12/31/2023 04:34:52 75.15, 107.76 98.22 2.20 59
8 12/31/2023 05:25:15 -75.20, -84.81 81.74 12/31/2023 05:25:33 -75.18, -84.81 81.75 1.54 18
9 01/02/2024 20:47:55 74.67,-134.08 97.50 01/02/2024 20:46:49 74.61,-136.71 97.50 77.66 66
10 01/02/2024 21:37:28 -75.18, 32.21 81.97 01/02/2024 21:37:19 -75.18, 32.20 81.97 0.96 9
11 01/02/2024 22:26:53 75.25,-160.30 98.10 01/02/2024 22:27:58 75.22,-160.33 98.08 2.49 65
12 01/05/2024 13:49:40 -75.15, 149.31 82.27 01/05/2024 13:49:06 -75.16, 149.19 82.26 3.59 34
13 01/05/2024 14:39:05 75.21, -43.22 97.80 01/05/2024 14:39:45 75.20, -43.35 97.79 4.02 40



Historial Predications of SNOs between AQUA and METOP-B
